KTXEAGLE7 Weather Reports


time (UTC)temp
F
wind
direction
speed
knots
gust
knots
rain 1hr
in
rain 24hr
in
rain mn
in
humidity
%
barometer
mb
20260509113053 73 186 2.6 3.5 0.00 0.02 0.00 100 1010.5
20260509111543 73 87 0.0 0.9 0.00 0.02 0.00 100 1010.8
20260509110042 73 87 0.9 2.6 0.00 0.02 0.00 100 1010.9
20260509104543 73 360 0.0 0.9 0.00 0.02 0.00 100 1010.9
20260509103048 73 360 0.0 2.6 0.00 0.02 0.00 100 1010.5
20260509101557 73 52 0.0 1.7 0.00 0.02 0.00 100 1010.4
20260509100041 73 52 0.0 1.7 0.00 0.02 0.00 100 1010.5
20260509094545 73 52 0.0 1.7 0.00 0.02 0.00 100 1010.2
20260509093039 73 52 0.0 1.7 0.00 0.02 0.00 100 1010.0
20260509091540 73 52 0.9 3.5 0.00 0.02 0.00 100 1009.8
20260509090045 73 152 0.9 1.7 0.00 0.02 0.00 100 1009.8
20260509084542 73 152 0.9 2.6 0.00 0.02 0.00 100 1010.0
20260509083050 73 152 0.0 1.7 0.00 0.02 0.00 100 1010.5
20260509081536 73 152 0.0 1.7 0.00 0.02 0.00 100 1010.4
20260509080039 73 152 0.0 2.6 0.00 0.02 0.00 100 1010.1
20260509074538 73 152 1.7 6.1 0.00 0.02 0.00 100 1010.0
20260509073035 73 148 3.5 7.8 0.00 0.02 0.00 100 1009.9
20260509071541 73 148 5.2 8.7 0.00 0.02 0.00 100 1010.0
20260509070031 73 136 5.2 7.8 0.00 0.02 0.00 99 1010.5
20260509064528 73 136 4.3 6.1 0.00 0.02 0.00 99 1010.5
20260509063024 73 124 2.6 6.1 0.00 0.02 0.00 99 1010.7
20260509061523 73 126 2.6 6.1 0.00 0.02 0.00 99 1010.9
20260509060019 73 125 2.6 5.2 0.00 0.02 0.00 99 1010.9
20260509054519 73 124 1.7 3.5 0.00 0.02 0.00 99 1011.0
20260509053018 73 134 1.7 4.3 0.00 0.02 0.00 99 1011.0
20260509051516 73 125 3.5 7.0 0.00 0.02 0.00 99 1010.9
20260509050020 73 128 4.3 7.8 0.00 0.02 0.02 98 1011.1
20260509044518 73 132 4.3 8.7 0.00 0.02 0.02 98 1010.8
20260509043015 73 122 7.0 9.6 0.00 0.02 0.02 98 1010.7
20260509041513 73 131 4.3 7.8 0.00 0.02 0.02 98 1010.7
20260509040025 73 119 3.5 5.2 0.00 0.02 0.02 98 1010.7
20260509034512 72 95 2.6 6.1 0.00 0.02 0.02 97 1010.8
20260509033012 72 101 2.6 5.2 0.00 0.02 0.02 97 1010.7
20260509031512 72 95 2.6 5.2 0.00 0.02 0.02 97 1010.6
20260509030019 72 62 2.6 4.3 0.00 0.02 0.02 97 1010.3
20260509024514 72 82 1.7 3.5 0.00 0.02 0.02 97 1010.4
20260509023010 72 82 1.7 2.6 0.00 0.02 0.02 96 1010.2
20260509021509 72 55 0.9 3.5 0.00 0.02 0.02 96 1009.9
20260509020009 73 81 1.7 3.5 0.00 0.02 0.02 96 1009.7
20260509014508 73 81 1.7 4.3 0.00 0.02 0.02 96 1009.5
20260509013008 73 73 2.6 6.1 0.00 0.02 0.02 96 1009.6
20260509011508 73 117 3.5 6.1 0.00 0.02 0.02 96 1009.6
20260509010006 73 87 2.6 6.1 0.00 0.02 0.02 95 1009.6
20260509004507 73 128 3.5 6.1 0.00 0.02 0.02 95 1009.5
20260509003009 73 84 4.3 8.7 0.00 0.02 0.02 95 1009.5
20260509001509 73 100 4.3 7.0 0.00 0.02 0.02 95 1009.4
20260509000005 74 100 5.2 7.8 0.00 0.02 0.02 94 1009.4
20260508234505 74 104 4.3 9.6 0.00 0.02 0.02 94 1009.5
20260508233003 74 100 4.3 7.8 0.00 0.02 0.02 94 1009.3
20260508231503 74 107 5.2 7.8 0.00 0.02 0.02 94 1009.3
20260508230003 74 65 5.2 7.8 0.00 0.02 0.02 94 1009.3
20260508224647 74 94 5.2 7.8 0.00 0.02 0.02 94 1009.5
20260508223100 74 74 1.7 7.8 0.00 0.02 0.02 93 1009.7
20260508221559 74 98 5.2 7.8 0.00 0.02 0.02 93 1009.5
20260508220058 74 102 4.3 7.8 0.00 0.02 0.02 93 1009.7
20260508214556 74 115 4.3 8.7 0.00 0.02 0.02 94 1009.8
20260508213053 73 83 5.2 7.0 0.00 0.02 0.02 94 1009.8
20260508211552 73 121 4.3 7.0 0.00 0.02 0.02 94 1010.0
20260508210048 72 113 2.6 7.0 0.00 0.02 0.02 94 1010.4
20260508204544 72 73 3.5 7.0 0.00 0.02 0.02 94 1010.8
20260508203043 72 107 3.5 7.8 0.00 0.02 0.02 95 1010.8
20260508201537 71 90 4.3 8.7 0.00 0.02 0.02 95 1010.9
20260508200037 71 107 6.1 9.6 0.00 0.02 0.02 95 1011.2
20260508194540 70 97 4.3 7.8 0.00 0.02 0.02 95 1011.1
20260508193033 70 80 3.5 7.0 0.00 0.02 0.02 96 1011.3
20260508191536 69 86 3.5 7.8 0.00 0.02 0.02 96 1011.9
20260508190028 69 59 4.3 8.7 0.00 0.02 0.02 96 1011.9
20260508184528 69 77 2.6 6.1 0.00 0.02 0.02 95 1012.3
20260508183032 69 44 2.6 8.7 0.01 0.02 0.02 95 1012.2
20260508181525 69 55 3.5 7.8 0.01 0.02 0.02 96 1012.0
20260508180026 68 57 3.5 7.8 0.01 0.02 0.02 96 1012.1
20260508174522 68 74 3.5 7.8 0.01 0.02 0.02 96 1012.2
20260508173020 68 85 5.2 7.8 0.01 0.01 0.01 96 1012.4
20260508171518 68 90 2.6 5.2 0.01 0.01 0.01 96 1012.8
20260508170019 68 80 3.5 7.8 0.01 0.01 0.01 96 1013.0
20260508164516 68 51 2.6 5.2 0.01 0.01 0.01 95 1013.2
20260508163027 67 53 3.5 7.0 0.00 0.00 0.00 94 1013.5
20260508161514 68 50 2.6 5.2 0.00 0.00 0.00 94 1013.9
20260508160020 68 67 2.6 8.7 0.00 0.00 0.00 93 1013.7
20260508154516 67 52 3.5 7.0 0.00 0.00 0.00 93 1013.2
20260508153011 67 79 3.5 8.7 0.00 0.00 0.00 93 1013.0
20260508151512 67 10 1.7 7.0 0.00 0.00 0.00 94 1013.4
20260508150030 66 68 2.6 7.0 0.00 0.00 0.00 94 1013.2
20260508144510 66 312 1.7 5.2 0.00 0.00 0.00 94 1013.6
20260508143011 66 53 0.9 4.3 0.00 0.00 0.00 94 1013.5
20260508141508 66 80 0.0 5.2 0.00 0.00 0.00 94 1013.6
20260508140013 66 82 2.6 5.2 0.00 0.00 0.00 93 1013.6
20260508134507 66 82 1.7 3.5 0.00 0.00 0.00 93 1013.8
20260508133009 66 23 0.9 5.2 0.00 0.00 0.00 92 1013.9
20260508131506 66 88 2.6 6.1 0.00 0.00 0.00 92 1013.5
20260508130005 66 5 2.6 7.0 0.00 0.00 0.00 91 1013.7
20260508124506 66 19 1.7 7.8 0.00 0.00 0.00 91 1013.7
20260508123004 66 51 0.9 3.5 0.00 0.00 0.00 91 1013.6
20260508121503 66 91 1.7 5.2 0.00 0.00 0.00 90 1013.3
20260508120003 66 57 2.6 4.3 0.00 0.00 0.00 89 1013.7
20260508114503 66 26 2.6 4.3 0.00 0.00 0.00 89 1014.0